GW1539 Weather Reports


time (UTC)temp
C
wind
direction
speed
KPH
gust
KPH
rain 1hr
cm
rain 24hr
cm
rain mn
cm
humidity
%
barometer
mb
20260903163027 23 253 0.0 3.2 0.00 0.00 0.00 67 1018.1
20260903161526 24 253 0.0 3.2 0.00 0.00 0.00 63 1018.0
20260903154544 23 253 0.0 6.4 0.00 0.00 0.00 66 1017.8
20260903153027 23 258 0.0 6.4 0.00 0.00 0.00 64 1017.6
20260903150047 25 240 0.0 4.8 0.00 0.00 0.00 56 1017.5
20260903144540 25 317 0.0 6.4 0.00 0.00 0.00 55 1017.5
20260903143035 25 246 1.6 6.4 0.00 0.00 0.00 56 1017.5
20260903141541 25 243 4.8 11.3 0.00 0.00 0.00 57 1018.0
20260903140030 25 241 0.0 11.3 0.00 0.00 0.00 60 1018.3
20260903134528 25 224 1.6 14.5 0.00 0.00 0.00 57 1018.2
20260903131529 25 245 0.0 4.8 0.00 0.00 0.00 55 1018.4
20260903124543 23 214 0.0 6.4 0.00 0.00 0.00 60 1018.4
20260903123036 25 259 4.8 14.5 0.00 0.00 0.00 57 1018.4
20260903121533 25 236 3.2 9.7 0.00 0.00 0.00 56 1018.6
20260903114534 25 273 3.2 9.7 0.00 0.00 0.00 61 1018.7
20260903111533 25 227 3.2 12.9 0.00 0.00 0.00 58 1018.8
20260903104534 23 232 4.8 11.3 0.00 0.00 0.00 61 1019.3
20260903101537 23 345 0.0 4.8 0.00 0.00 0.00 62 1019.4
20260903100036 22 346 0.0 6.4 0.00 0.00 0.00 63 1019.6
20260903094537 22 224 1.6 9.7 0.00 0.00 0.00 63 1020.1
20260903091545 21 278 0.0 6.4 0.00 0.00 0.00 67 1020.3
20260903084532 20 264 0.0 4.8 0.00 0.00 0.00 70 1020.3
20260903081533 19 202 0.0 3.2 0.00 0.00 0.00 74 1020.2
20260903074541 18 202 1.6 6.4 0.00 0.00 0.00 81 1020.1
20260903073036 17 185 0.0 1.6 0.00 0.00 0.00 82 1020.3
20260903070039 17 185 0.0 3.2 0.00 0.00 0.00 84 1020.2
20260903063039 16 184 0.0 4.8 0.00 0.00 0.00 88 1020.1
20260903061544 15 267 0.0 3.2 0.00 0.00 0.00 93 1019.9
20260903054533 13 260 0.0 0.0 0.00 0.00 0.00 96 1019.8
20260903053032 12 260 0.0 3.2 0.00 0.00 0.00 95 1019.7
20260903050031 12 260 0.0 1.6 0.00 0.00 0.00 95 1019.3
20260903043035 12 260 0.0 0.0 0.00 0.00 0.00 95 1019.1
20260903041529 12 260 0.0 0.0 0.00 0.00 0.00 94 1019.0
20260903034531 12 260 0.0 0.0 0.00 0.00 0.00 95 1019.1
20260903033033 12 260 0.0 0.0 0.00 0.00 0.00 94 1019.1
20260903030039 12 260 0.0 0.0 0.00 0.00 0.00 94 1019.5
20260903023028 12 260 0.0 0.0 0.00 0.00 0.00 94 1019.6
20260903020037 13 260 0.0 0.0 0.00 0.00 0.00 94 1019.6
20260903013030 12 260 0.0 0.0 0.00 0.00 0.00 94 1019.7
20260903011537 13 260 0.0 0.0 0.00 0.00 0.00 94 1019.7
20260903004544 13 260 0.0 0.0 0.00 0.00 0.00 93 1019.6
20260903003036 13 260 0.0 0.0 0.00 0.00 0.00 93 1019.5
20260903000038 13 260 0.0 0.0 0.00 0.00 0.00 93 1019.5
20260902233817 13 260 0.0 0.0 0.00 0.00 0.00 92 1019.5
20260902231538 13 260 0.0 0.0 0.00 0.00 0.00 92 1019.5
20260902230028 13 260 0.0 0.0 0.00 0.00 0.00 92 1019.4
20260902223026 14 260 0.0 0.0 0.00 0.00 0.00 91 1019.5
20260902220105 14 260 0.0 0.0 0.00 0.00 0.00 90 1019.2
20260902213036 15 260 0.0 0.0 0.00 0.00 0.00 90 1019.2
20260902211534 15 260 0.0 0.0 0.00 0.00 0.00 89 1019.1
20260902204538 15 260 0.0 0.0 0.00 0.00 0.00 87 1018.9
20260902201523 16 260 0.0 0.0 0.00 0.00 0.00 86 1018.7
20260902194532 16 260 0.0 0.0 0.00 0.00 0.00 86 1018.5
20260902193025 16 260 0.0 0.0 0.00 0.00 0.00 85 1018.6
20260902190032 17 260 0.0 0.0 0.00 0.00 0.00 82 1018.4
20260902183052 18 260 0.0 0.0 0.00 0.00 0.00 80 1017.9
20260902181532 18 260 0.0 0.0 0.00 0.00 0.00 79 1017.7
20260902180030 19 260 0.0 0.0 0.00 0.00 0.00 77 1017.5
20260902173037 20 260 0.0 1.6 0.00 0.00 0.00 77 1017.2
20260902171528 20 260 0.0 0.0 0.00 0.00 0.00 75 1017.1
20260902164539 21 260 0.0 0.0 0.00 0.00 0.00 71 1016.9